Shelbyville, IN

6:04 PM EDT on May 24, 2018 (GMT -0400)
Shelbyville Municipal

Weather History for KGEZ - March, 2015

Change the Weather History Date:

Tuesday, March 3, 2015

  Actual Average Record
Temperature  
Mean Temperature 36 °F 36 °F  
Max Temperature 46 °F 46 °F 62 °F (2008)
Min Temperature 26 °F 27 °F 8 °F (2009)
Degree Days  
Heating Degree Days 29 28  
Month to date heating degree days 107 86  
Since 1 July heating degree days 4548 4249  
Cooling Degree Days 0 0  
Month to date cooling degree days 0 0  
Year to date cooling degree days 0 0  
Moisture  
Dew Point 32 °F    
Average Humidity 78    
Maximum Humidity 92    
Minimum Humidity 63    
Precipitation  
Precipitation 0.27 in 0.08 in 0.92 in (2008)
Month to date precipitation 0.75 0.24  
Year to date precipitation 3.77 4.99  
Sea Level Pressure  
Sea Level Pressure 29.89 in    
Wind  
Wind Speed 11 mph (SSW)    
Max Wind Speed 20 mph    
Max Gust Speed 28 mph    
Visibility 5 miles    
Events Fog , Rain    
T = Trace of Precipitation, MM = Missing Value Source: NWS Daily Summary

Daily Weather History Graph

Daily Weather History Graph

Search for Another Location

Airport or City:

Astronomy

Mar. 03, 2015 Rise Set
Actual Time 7:13 AM EST 6:37 PM EST
Civil Twilight 6:46 AM EST 7:04 PM EST
Nautical Twilight 6:15 AM EST 7:35 PM EST
Astronomical Twilight 5:44 AM EST 8:06 PM EST
Moon 5:00 PM EST (3/3) 5:52 AM EST (3/3)
Length of Visible Light 12h 17m
Length of Day
11h 23m
Waxing Gibbous, 96% of the Moon is Illuminated
Mar 3
Waxing Gibbous
Mar 5
Full
Mar 13
Last Quarter
Mar 20
New
Mar 27
First Quarter

Hourly Weather History & Observations

Time (EST) Temp. Windchill Dew Point Humidity Pressure Visibility Wind Dir Wind Speed Gust Speed Precip Events Conditions
12:53 AM 26.1 °F 16.2 °F 16.0 °F 66% 30.27 in 10.0 mi ESE 10.4 mph - N/A   Clear
1:53 AM 27.0 °F 19.5 °F 16.0 °F 63% 30.28 in 10.0 mi ESE 6.9 mph - N/A   Clear
2:53 AM 27.0 °F 21.6 °F 17.1 °F 66% 30.22 in 10.0 mi East 4.6 mph - N/A   Partly Cloudy
3:53 AM 28.9 °F - 18.0 °F 64% 30.22 in 10.0 mi Calm Calm - N/A   Mostly Cloudy
4:53 AM 28.9 °F 18.6 °F 17.1 °F 61% 30.11 in 10.0 mi ESE 12.7 mph - 0.00 in   Mostly Cloudy
5:53 AM 30.9 °F 23.5 °F 19.0 °F 61% 30.14 in 10.0 mi SSE 8.1 mph - N/A   Overcast
8:53 AM 30.9 °F 21.2 °F 21.9 °F 69% 30.03 in 10.0 mi SE 12.7 mph - 0.00 in   Overcast
9:39 AM 32.0 °F 21.6 °F 25.0 °F 75% 29.96 in 2.0 mi SE 15.0 mph - 0.00 in   Overcast
9:45 AM 32.0 °F 21.2 °F 25.0 °F 75% 29.95 in 2.5 mi SE 16.1 mph - 0.00 in Rain Light Freezing Rain
9:53 AM 32.0 °F 20.8 °F 25.0 °F 75% 29.98 in 4.0 mi SSE 17.3 mph - 0.00 in Rain Light Freezing Rain
10:53 AM 34.0 °F 22.7 °F 28.9 °F 82% 29.90 in 4.0 mi SSE 19.6 mph - 0.02 in Rain Light Freezing Rain
11:07 AM 34.0 °F 23.8 °F 30.0 °F 85% 29.87 in 2.0 mi South 16.1 mph 27.6 mph 0.02 in Rain Light Freezing Rain
11:19 AM 34.0 °F 23.8 °F 30.0 °F 85% 29.87 in 3.0 mi South 16.1 mph - 0.03 in Rain Light Rain
11:53 AM 35.1 °F 26.4 °F 30.9 °F 85% 29.89 in 5.0 mi SSW 12.7 mph - 0.04 in   Overcast
12:19 PM 35.1 °F 25.9 °F 30.9 °F 85% 29.84 in 2.5 mi South 13.8 mph - 0.02 in Rain Light Rain
12:26 PM 35.1 °F 25.5 °F 32.0 °F 89% 29.83 in 4.0 mi South 15.0 mph - 0.02 in   Overcast
12:53 PM 36.0 °F 27.1 °F 32.0 °F 86% 29.84 in 2.5 mi South 13.8 mph - 0.02 in Rain Light Rain
1:04 PM 36.0 °F 26.7 °F 33.1 °F 89% 29.80 in 2.5 mi South 15.0 mph - 0.01 in Rain Light Rain
1:36 PM 37.0 °F 28.5 °F 33.1 °F 86% 29.79 in 3.0 mi South 13.8 mph - 0.04 in Rain Light Rain
1:45 PM 37.0 °F 28.9 °F 34.0 °F 89% 29.78 in 2.0 mi South 12.7 mph - 0.04 in Rain Light Rain
1:53 PM 37.0 °F 28.1 °F 34.0 °F 89% 29.80 in 2.0 mi South 15.0 mph - 0.04 in   Overcast
2:00 PM 37.0 °F 28.5 °F 34.0 °F 89% 29.77 in 1.5 mi South 13.8 mph - 0.00 in Rain Light Rain
2:53 PM 37.9 °F 32.1 °F 36.0 °F 93% 29.78 in 1.2 mi South 8.1 mph - 0.03 in Rain Light Rain
3:10 PM 37.9 °F 31.5 °F 36.0 °F 93% 29.75 in 0.8 mi South 9.2 mph - 0.00 in   Mist
3:32 PM 39.0 °F 32.3 °F 37.0 °F 93% 29.75 in 0.2 mi South 10.4 mph - 0.01 in Fog , Rain Light Rain
3:53 PM 39.0 °F 32.8 °F 37.0 °F 93% 29.77 in 0.2 mi SSW 9.2 mph - 0.01 in Fog , Rain Light Rain
4:24 PM 44.1 °F 36.5 °F 42.1 °F 93% 29.75 in 0.2 mi SW 17.3 mph - 0.00 in Fog Fog
4:28 PM 45.0 °F 37.9 °F 42.1 °F 90% 29.75 in 0.8 mi SW 16.1 mph - 0.00 in   Overcast
4:30 PM 45.0 °F 37.9 °F 42.1 °F 90% 29.74 in 1.0 mi WSW 16.1 mph - 0.00 in   Overcast
4:38 PM 45.0 °F 37.4 °F 43.0 °F 93% 29.74 in 3.0 mi WSW 18.4 mph - 0.00 in   Overcast
4:53 PM 45.0 °F 37.9 °F 42.1 °F 90% 29.76 in 6.0 mi WSW 16.1 mph - 0.00 in   Overcast
5:53 PM 44.1 °F 36.5 °F 41.0 °F 89% 29.80 in 5.0 mi West 17.3 mph - N/A   Overcast
6:07 PM 43.0 °F 36.0 °F 41.0 °F 93% 29.78 in 2.5 mi West 13.8 mph - 0.00 in Rain Light Rain
6:15 PM 43.0 °F 36.8 °F 39.9 °F 89% 29.78 in 2.0 mi West 11.5 mph - 0.00 in Rain Light Rain
6:32 PM 42.1 °F 36.1 °F 39.9 °F 92% 29.78 in 4.0 mi West 10.4 mph - 0.00 in Rain Light Rain
6:53 PM 41.0 °F 35.8 °F 39.0 °F 93% 29.83 in 4.0 mi West 8.1 mph - 0.01 in Rain Light Rain
7:08 PM 42.1 °F 36.1 °F 39.0 °F 89% 29.81 in 8.0 mi West 10.4 mph - 0.01 in Rain Light Rain
7:21 PM 41.0 °F 35.2 °F 37.9 °F 89% 29.81 in 10.0 mi West 9.2 mph - 0.01 in Rain Light Rain
7:53 PM 39.9 °F 34.5 °F 37.0 °F 89% 29.85 in 9.0 mi West 8.1 mph - 0.01 in Rain Light Rain
8:19 PM 39.9 °F 35.1 °F 37.0 °F 89% 29.83 in 7.0 mi WSW 6.9 mph - 0.01 in Rain Light Rain
8:26 PM 39.9 °F 34.5 °F 37.0 °F 89% 29.85 in 5.0 mi West 8.1 mph - 0.02 in Rain Light Rain
8:53 PM 39.9 °F 35.8 °F 37.0 °F 89% 29.85 in 5.0 mi WSW 5.8 mph - 0.05 in Rain Light Rain
9:53 PM 39.0 °F 33.4 °F 36.0 °F 89% 29.88 in 6.0 mi West 8.1 mph - 0.01 in   Overcast
10:03 PM 39.0 °F 34.0 °F 36.0 °F 89% 29.86 in 6.0 mi WSW 6.9 mph - N/A   Overcast
10:53 PM 39.0 °F 32.8 °F 35.1 °F 86% 29.91 in 6.0 mi West 9.2 mph - 0.00 in   Overcast
11:53 PM 37.9 °F 32.7 °F 35.1 °F 89% 29.91 in 4.0 mi West 6.9 mph - 0.02 in Rain Light Rain